Starlink 1169

operational
NORAD ID: 45061 Int'l Des: 2020-006 Owner: SPXS Country: US Constellation: starlink
LEOCIRCULARSTARLINK_TYPE

About Starlink 1169

Description loading...

Live Position

Loading 3D Globe...

Upcoming Passes

Altitude History

Altitude vs Time

uPlot chart will show altitude changes over time

Two-Line Element Set

1 45061U 20006T 25302.86331460 .00003707 00000-0 26754-3 0 9991
2 45061 53.0529 153.9234 0001282 94.2236 265.8900 15.06410629316743
Epoch: Oct 29, 2025 • Age: 20 hours

Current Status

Altitude 561.3 km
Velocity 7.58 km/s
Sub-Earth Point -40.50°S, 173.41°E
Launch Date Jan 29, 2020
Age 5.7 years
Type internet

Technical Details

Classification Payload
Mass 260.00 kg
Dry Mass 248.00 kg
Total Mass 260.00 kg
Length 0.20 m
Diameter 2.80 m
Span 9.00 m
Shape Box + pan
Manufacturer SPXS
Bus Type Starlink
Phase Status In Orbit
Owner/State SPXS/US

Large Constellations

Loading constellations...